Regional Weather Roundup
Issued by NWS

Home | Current Version | Previous Version | Text Only | Print | Product List | Glossary On
Versions: 1 2 3 4 5 6 7 8 9 10 11 12 13 14 15 16 17 18 19 20 21 22 23 24 25 26 27
000
ASUS44 KLIX 171313
RWRLA
LOUISIANA WEATHER ROUNDUP
NATIONAL WEATHER SERVICE NEW ORLEANS LA
700 AM CST TUE JAN 17 2017

NOTE: "FAIR" INDICATES FEW OR NO CLOUDS BELOW 12,000 FEET WITH NO
      SIGNIFICANT WEATHER AND/OR OBSTRUCTIONS TO VISIBILITY.
      SKY/WX - SKY CONDITION AND SIGNIFICANT WEATHER.
      TMP - AIR TEMPERATURE.    DP   - DEWPOINT TEMPERATURE.
      RH  - RELATIVE HUMIDITY.  PRES - PRESSURE.
      HX  - HEAT INDEX.         WCI  - WIND CHILL INDEX.

*  THESE STATIONS ARE NOT NWS OR FAA STATIONS AND ARE NOT UNDER
   NWS QUALITY CONTROL.

LAZ040-048-061>063-065-066-069-171400-
SOUTHEAST LOUISIANA

CITY           SKY/WX    TMP DP  RH WIND       PRES   REMARKS
N.O. AUDUBON   NOT AVBL
N.O. INTL ARPT CLOUDY    68  68 100 S6        30.13R FOG
N.O. LAKEFRONT CLOUDY    68  67  96 S6        30.14R
N.O. DOWNTOWN*   N/A     68  67  96 S7        30.14R FOG
RESERVE*       CLOUDY    68  66  93 SE5       30.13R FOG
SLIDELL        CLOUDY    68  67  96 S7        30.13R
BATON ROUGE    CLOUDY    68  67  96 SE5       30.12R FOG
BOOTHVILLE     CLOUDY    64  64 100 SE3       30.15R FOG
BELLE CHASSE   FOG       67  67 100 SE3       30.14R VSB 3/4
BOGALUSA*      CLOUDY    69  66  89 CALM      30.15R
GALLIANO*      CLOUDY    68  66  92 SE3       30.13R FOG
NEW ROADS*     CLOUDY    66  66  97 CALM      30.12R
GONZALES*      CLOUDY    67  67 100 S5        30.11S FOG
HAMMOND*       CLOUDY    64  63  94 CALM      30.13S FOG
HOUMA*         CLOUDY    70  68  94 SE5       30.12R FOG
PORT FOURCHON* CLOUDY    70  68  94 SE8       30.13R FOG

$$

LAZ041-044-053-054-171400-
SOUTHWEST LOUISIANA

CITY           SKY/WX    TMP DP  RH WIND       PRES   REMARKS
LAKE CHARLES   CLOUDY    69  68  96 S9        30.07R
LAFAYETTE      CLOUDY    71  69  93 S3        30.10R
PATTERSON      FOG       68  68 100 S6        30.12R VSB 3/4
SALT POINT     NOT AVBL
NEW IBERIA     CLOUDY    70  67  90 S9        30.11R
CHENAULT AIRPK MOCLDY    68  68 100 S8        30.07S

$$

LAZ027-028-171400-
CENTRAL LOUISIANA

CITY           SKY/WX    TMP DP  RH WIND       PRES   REMARKS
FORT POLK      LGT RAIN  57  57 100 N9        30.08R
ALEXANDRIA INT CLOUDY    62  61  96 NW7       30.07R
ALEXANDRIA     CLOUDY    69  67  93 S6        30.08R

$$

LAZ001-002-171400-
NORTHWEST LOUISIANA

CITY           SKY/WX    TMP DP  RH WIND       PRES   REMARKS
SHREVEPORT     CLOUDY    54  48  80 N6        30.12R
BARKSDALE AFB  CLOUDY    54  50  86 NW7       30.13R
DTN SHREVEPORT CLOUDY    54  48  80 NW5       30.13R

$$

LAZ014-016-171400-
NORTHEAST LOUISIANA

CITY           SKY/WX    TMP DP  RH WIND       PRES   REMARKS
MONROE         LGT RAIN  57  55  93 N7        30.11F
TALLULAH       CLOUDY    67  64  90 CALM      30.11R

$$





USA.gov is the U.S. government's official web portal to all federal, state and local government web resources and services.